SCP
0 0 0 0 0 0 0 0 0 0 0 0 0 1 1 1 1 1 1 1 1 1 1 1 1 1 1 1 1 1 2 1 1 1 1 1 1 0 0 0 0 0 0 0
0 0 0 0 0 0 0 0 0 0 0 0 1 1 1 1 1 1 1 1 1 1 1 1 1 1 2 2 1 1 1 1 1 1 1 1 0 0 0 0 0 0 0 0
0 0 0 0 0 0 0 0 0 0 0 1 1 1 1 1 1 1 1 1 1 1 1 1 1 2 2 2 1 1 1 1 1 1 1 0 0 0 0 0 0 0 0 0
0 0 0 0 0 0 0 0 0 0 1 1 1 1 1 1 2 2 1 1 1 1 1 1 1 2 2 1 1 1 1 1 1 1 0 0 0 0 0 0 0 0 0 0
0 0 0 0 0 0 0 0 1 1 1 1 1 2 2 1 2 2 1 1 1 1 1 2 2 1 1 1 1 1 1 1 1 0 0 0 0 0 0 0 0 0 0 0
0 0 0 0 0 0 0 1 1 1 1 1 1 1 1 2 2 2 2 1 1 1 2 2 1 1 1 1 0 0 0 0 0 0 0 0 0 0 0 0 0 0 0 0
0 0 0 0 0 0 0 1 1 1 1 1 1 1 2 2 2 2 2 2 1 1 1 1 1 1 1 0 0 0 0 0 0 0 0 0 0 0 0 0 0 0 0 0
0 0 0 0 0 0 0 1 1 1 1 1 2 2 2 2 2 2 2 1 1 1 1 1 1 1 1 0 0 0 0 0 0 0 0 0 0 0 0 0 0 0 0 0
0 0 0 0 1 1 1 1 1 1 2 2 2 3 3 3 2 2 2 1 1 1 1 1 0 0 0 0 0 0 0 0 0 0 0 0 0 0 0 0 0 0 0 0
0 0 1 1 1 1 1 1 1 1 2 2 3 3 3 2 2 2 1 1 1 1 1 0 0 0 0 0 0 0 0 0 0 0 0 0 0 0 0 0 0 0 0 0
0 1 1 1 1 1 1 1 1 1 2 2 2 2 2 2 2 1 1 1 1 1 0 0 0 0 0 0 0 0 0 0 0 0 0 0 0 0 0 0 0 0 0 0
0 0 1 1 1 1 1 1 1 1 2 2 2 2 2 1 1 1 1 1 1 1 0 0 0 0 0 0 0 0 0 0 0 0 0 0 0 0 0 0 0 0 0 0
0 1 1 1 1 1 1 1 1 1 1 1 1 1 1 1 1 1 1 1 1 0 0 0 0 0 0 0 0 0 0 0 0 0 0 0 0 0 0 0 0 0 0 0
1 1 1 1 1 1 1 1 1 1 1 1 1 1 1 1 1 1 1 0 0 0 0 0 0 0 0 0 0 0 0 0 0 0 0 0 0 0 0 0 0 0 0 0
1 1 1 1 1 1 1 1 1 1 1 1 1 1 1 1 0 0 0 0 0 0 0 0 0 0 0 0 0 0 0 0 0 0 0 0 0 0 0 0 0 0 0 0
1 1 1 1 1 1 0 0 0 0 0 0 0 0 0 0 0 0 0 0 0 0 0 0 0 0 0 0 0 0 0 0 0 0 0 0 0 0 0 0 0 0 0 0
0 0 0 0 0 0 0 0 0 0 0 0 0 0 0 0 0 0 0 0 0 0 0 0 0 0 0 0 0 0 0 0 0 0 0 0 0 0 0 0 0 0 0 0
0 0 0 0 0 0 0 0 0 0 0 0 0 0 0 0 0 0 0 0 0 0 0 0 0 0 0 0 0 0 0 0 0 0 0 0 0 0 0 0 0 0 0 0
0 0 0 0 0 0 0 0 0 0 0 0 0 0 0 0 0 0 0 0 0 0 0 0 0 0 0 0 0 0 0 0 0 0 0 0 0 0 0 0 0 0 0 0
0 0 0 0 0 0 0 0 0 0 0 0 0 0 0 0 0 0 0 0 0 0 0 0 0 0 0 0 0 0 0 0 0 0 0 0 0 0 0 0 0 0 0 0
0 0 0 0 0 0 0 0 0 0 0 0 0 0 0 0 0 0 0 0 0 0 0 0 0 0 0 0 0 0 0 0 0 0 0 0 0 0 0 0 0 0 0 0
0 0 0 0 0 0 0 0 0 0 0 0 0 0 0 0 0 0 0 0 0 0 0 0 0 0 0 0 0 0 0 0 0 0 0 0 0 0 0 0 0 0 0 0
0 0 0 0 0 0 0 0 0 0 0 0 0 0 0 0 0 0 0 0 0 0 0 0 0 0 0 0 0 0 0 0 0 0 0 0 0 0 0 0 0 0 0 0
0 0 0 0 0 0 0 0 0 0 0 0 0 0 0 0 0 0 0 0 0 0 0 0 0 0 0 0 0 0 0 0 0 0 0 0 0 0 0 0 0 0 0 0
0 0 0 0 0 0 0 0 0 0 0 0 0 0 0 0 0 0 0 0 0 0 0 0 0 0 0 0 0 0 0 0 0 0 0 0 0 0 0 0 0 0 0 0
0 0 0 0 0 0 0 0 0 0 0 0 0 0 0 0 0 0 0 0 0 0 0 0 0 0 0 0 0 0 0 0 0 0 0 0 0 0 0 0 0 0 0 0
0 0 0 0 0 0 0 0 0 0 0 0 0 0 0 0 0 0 0 0 0 0 0 0 0 0 0 0 0 0 0 0 0 0 0 0 0 0 0 0 0 0 0 0
Wind_Speed
4 4 4 5 6 6 6 8 8 8 8 8 6 7 7 8 9 9 9 8 7 6 6 6 6 6 6 5 5 6 6 6 5 4 4 4 3 3 4 4 4 4 4 3
1 2 1 3 6 7 7 6 6 6 4 6 5 5 6 8 9 9 9 8 7 7 7 7 7 7 6 6 5 6 6 5 5 5 5 5 4 4 5 5 4 4 4 4
1 3 3 3 6 6 5 4 8 8 8 6 6 8 9 10 10 9 8 7 7 6 6 6 7 7 7 6 6 6 6 5 5 6 6 6 6 6 6 4 5 5 5 5
2 3 3 8 4 3 4 1 4 6 8 10 10 8 6 8 10 10 9 7 6 6 5 6 6 7 7 7 7 7 6 6 6 6 7 6 6 6 5 4 5 5 5 4
4 2 4 6 4 1 4 1 1 7 8 8 9 8 4 3 7 10 9 8 6 6 7 7 8 7 8 7 7 7 7 6 6 6 7 7 7 6 5 6 6 5 4 4
5 4 4 6 7 2 6 0 3 7 9 9 9 6 3 4 6 8 9 9 8 8 9 9 7 8 9 7 7 6 6 6 6 6 7 7 7 6 5 6 6 5 5 5
4 3 5 6 7 2 5 6 4 6 8 8 7 7 7 8 8 8 9 10 10 10 8 8 7 9 9 7 6 6 6 7 7 7 7 7 6 6 6 6 6 6 6 5
4 3 7 5 4 1 6 4 2 4 6 7 8 10 10 10 10 10 10 10 10 10 8 7 7 9 9 7 6 7 7 8 7 7 6 6 7 6 6 6 6 5 5 5
6 7 6 2 1 2 4 4 3 3 5 10 11 11 10 9 9 10 10 9 9 10 9 7 7 8 10 7 7 8 8 8 7 7 6 5 6 6 5 4 4 4 4 4
2 1 1 1 2 2 3 6 4 5 7 10 11 11 11 10 9 9 9 9 9 10 9 7 6 8 9 8 8 8 8 7 7 7 7 6 5 4 4 4 4 4 4 4
2 1 2 3 2 3 6 8 8 6 6 8 12 11 10 10 9 9 8 7 8 9 9 8 7 8 8 8 8 9 8 7 7 7 7 6 6 5 4 3 3 4 3 4
4 5 3 2 1 4 6 6 6 7 6 6 8 9 9 8 7 8 8 8 8 8 8 8 8 8 7 7 8 9 8 7 5 5 5 5 6 6 11 8 8 7 6 5
3 2 2 1 2 3 4 5 6 7 7 6 6 9 9 8 6 7 8 8 9 9 8 8 8 8 7 7 7 8 8 7 5 5 5 5 5 6 5 7 10 10 8 8
3 4 4 2 2 3 4 5 7 7 6 6 7 8 8 7 7 7 7 8 8 9 8 8 8 7 7 7 7 7 7 7 7 5 5 5 4 4 5 5 4 3 5 6
1 4 4 3 3 4 4 6 7 6 6 6 7 7 8 7 7 7 7 8 8 8 8 7 7 6 6 7 7 7 6 5 5 5 5 5 5 4 4 5 4 3 2 3
3 5 5 5 5 5 5 6 6 6 7 7 7 7 7 7 7 7 7 8 9 8 7 7 7 6 6 7 7 6 5 8 7 6 6 5 5 5 4 4 4 3 3 2
5 4 5 5 5 5 5 5 6 6 6 7 7 7 8 8 8 7 7 6 7 7 7 7 7 6 6 7 6 5 5 6 9 6 5 5 5 5 5 5 5 4 3 3
5 6 7 7 7 6 6 6 6 6 6 7 8 8 8 8 8 7 7 7 7 7 5 5 6 6 6 6 5 5 5 5 5 5 5 5 5 5 5 5 5 5 3 3
4 5 6 6 6 6 6 6 6 5 6 7 8 7 6 6 7 7 8 8 8 6 4 5 8 7 6 6 7 5 5 5 5 5 5 6 6 5 4 5 5 4 4 4
5 5 7 6 6 7 7 6 6 6 6 7 7 7 7 6 7 8 7 6 4 4 5 6 6 5 5 6 7 5 5 6 6 5 5 5 5 5 5 5 5 5 4 4
6 6 7 7 7 6 6 6 7 6 5 6 7 7 7 6 6 7 7 5 2 4 6 7 5 4 4 5 6 5 5 5 5 5 5 5 5 5 5 5 5 5 5 4
6 7 7 7 7 5 4 4 6 6 6 6 7 7 7 7 6 5 4 4 4 7 5 4 3 5 6 6 4 4 5 5 5 4 4 5 5 5 5 6 5 5 5 5
5 6 6 6 6 5 4 4 5 6 6 6 6 7 7 6 5 6 4 3 4 7 5 3 5 8 8 4 4 4 5 5 5 4 4 4 5 5 5 6 5 5 5 4
4 5 5 5 5 6 5 4 4 4 5 5 5 6 6 6 4 3 4 7 8 8 5 5 8 9 7 3 4 4 4 4 4 4 4 4 4 4 4 4 4 4 4 5
4 4 4 5 5 4 5 5 6 5 5 4 5 5 4 4 5 4 5 6 8 7 4 6 8 7 4 3 4 4 3 3 4 4 4 4 4 4 4 4 4 4 4 4
3 3 3 3 4 4 4 4 4 4 5 4 4 3 4 4 6 5 4 5 6 6 4 3 4 4 3 3 4 4 3 4 4 4 4 4 4 4 4 4 5 4 4 3
3 3 3 3 3 3 4 4 4 4 4 5 5 4 5 5 5 5 5 4 4 4 3 3 3 3 3 3 3 4 4 4 4 4 4 4 4 4 4 5 4 3 3 3
Wind_Direction
205 226 192 197 216 202 180 182 181 208 201 217 203 171 154 141 136 133 130 128 135 141 142 140 137 137 139 136 137 139 142 148 147 133 124 119 115 112 104 101 100 97 95 93
304 315 236 228 229 215 207 186 180 170 212 214 184 144 129 138 139 137 140 141 144 143 141 142 141 136 130 128 131 134 134 135 124 116 114 106 102 99 94 94 90 85 83 84
243 312 37 277 243 214 212 195 170 187 205 163 130 135 149 151 142 137 136 138 142 144 141 141 137 134 128 127 121 116 115 115 113 116 113 110 111 103 99 97 92 85 80 81
116 64 212 243 245 184 173 199 176 160 163 154 149 149 144 145 141 137 137 142 142 141 134 124 121 116 114 113 112 111 108 105 106 111 115 111 106 103 104 102 93 88 82 80
114 144 281 299 306 192 154 285 202 149 149 145 132 92 64 131 138 142 144 144 137 131 126 116 114 114 111 108 108 109 111 110 110 112 111 109 108 107 105 99 90 85 83 79
120 144 218 260 288 277 110 255 268 147 144 143 127 120 193 165 126 124 127 125 121 117 112 111 115 115 109 109 108 109 112 110 108 108 109 111 110 106 100 98 94 89 77 70
136 176 251 266 298 11 124 212 232 155 148 145 148 162 159 138 126 127 125 122 120 118 117 120 120 114 111 109 109 110 106 102 101 102 105 107 106 102 102 99 93 85 77 64
141 166 247 293 5 101 200 199 152 136 134 124 122 118 122 126 126 126 125 123 122 119 115 113 115 115 112 113 113 108 105 102 100 99 103 106 106 102 101 104 99 91 83 69
172 201 233 284 125 246 161 123 105 107 120 123 123 127 128 127 126 127 128 125 121 121 117 113 113 117 120 121 117 110 104 101 98 91 87 95 106 109 105 102 103 98 94 87
111 205 227 35 44 53 92 98 101 116 119 124 127 131 129 129 127 126 126 127 126 124 123 122 119 115 121 122 117 111 106 100 97 94 85 77 77 87 100 104 110 111 108 105
101 214 34 23 36 99 91 91 89 85 94 119 125 130 132 133 133 131 128 127 129 130 129 130 126 120 122 123 120 114 110 104 97 94 96 84 70 59 79 79 124 133 135 136
203 212 168 229 278 104 104 104 110 103 88 102 120 123 122 128 131 132 133 131 128 127 129 131 128 126 126 127 128 125 120 116 113 111 106 104 101 79 54 64 76 92 107 118
182 197 155 145 70 83 108 108 102 101 107 106 104 114 116 121 127 128 131 132 136 136 135 133 131 131 134 133 132 131 133 132 128 125 123 121 118 115 99 60 60 68 81 96
138 118 84 63 83 87 93 101 101 94 98 105 110 108 110 117 124 129 137 139 134 130 130 132 132 136 140 135 131 132 133 136 136 135 133 131 128 124 124 123 107 64 52 82
111 120 130 129 104 96 104 108 105 111 111 110 114 117 120 128 135 138 137 133 128 127 131 133 135 139 137 132 133 137 137 140 140 139 136 134 131 125 120 118 119 117 94 68
120 102 104 115 122 119 120 111 111 123 127 122 123 131 136 138 137 134 134 137 137 141 143 140 142 146 139 133 132 132 137 141 141 142 140 139 139 136 134 133 132 133 134 136
130 139 135 129 135 131 132 133 129 126 124 128 136 133 126 124 124 128 133 140 138 139 141 141 144 142 138 138 137 136 136 139 136 137 143 146 147 148 148 146 146 146 150 154
160 165 158 152 147 139 130 119 117 120 125 127 126 124 128 132 136 137 134 125 118 114 123 137 140 137 133 134 135 136 137 141 143 145 145 145 145 145 145 145 148 145 136 129
147 142 145 141 138 134 126 121 118 116 119 120 121 126 132 136 134 131 127 125 128 132 142 137 133 131 134 137 135 135 137 138 137 136 137 139 139 143 147 146 145 146 144 138
111 120 127 121 118 121 122 121 118 114 117 118 119 119 121 129 131 129 125 124 141 151 143 132 128 129 133 134 128 130 136 140 141 140 139 142 144 148 149 149 149 150 147 146
117 120 120 119 116 113 119 123 125 126 125 126 131 134 133 130 128 128 128 126 130 126 124 123 124 130 131 133 128 131 137 139 141 143 145 146 145 147 147 148 150 154 155 156
116 119 120 118 113 109 113 124 129 128 125 126 129 131 130 127 123 114 114 134 137 127 121 121 124 128 130 126 127 132 135 135 137 137 139 144 146 149 151 151 155 159 160 162
110 116 121 123 123 122 120 122 126 127 132 135 137 140 140 137 136 135 131 134 129 125 120 124 129 126 125 122 127 130 134 136 139 143 148 150 149 150 152 154 158 160 158 158
107 114 118 121 118 118 122 125 122 121 122 121 123 126 128 123 107 105 124 132 132 127 124 133 132 129 124 121 124 126 130 136 140 144 144 141 141 142 145 148 151 153 154 154
107 111 114 118 121 130 135 129 117 116 115 113 112 111 115 123 130 132 126 130 133 127 124 134 134 130 125 125 129 127 130 139 141 138 134 134 136 137 137 139 143 145 149 153
114 123 130 137 139 140 139 134 131 132 132 129 123 118 117 117 121 124 123 129 131 128 127 132 135 130 126 125 124 125 129 131 128 127 130 133 131 130 131 135 137 142 146 152
103 112 113 108 112 127 132 133 134 136 138 136 129 127 128 127 126 129 128 128 132 132 132 134 135 136 136 131 125 124 124 123 122 122 126 129 133 135 138 139 140 141 146 153